Weather History for Eagle River, WI

Change the Weather History Date:

Monday, February 11, 2013

  Actual Average Record
Temperature  
Mean Temperature 26 °F -  
Max Temperature 32 °F 28 °F 42 °F (1999)
Min Temperature 19 °F 2 °F -26 °F (2014)
Degree Days  
Heating Degree Days 40    
Moisture  
Dew Point 25 °F    
Average Humidity 92    
Maximum Humidity 100    
Minimum Humidity 80    
Precipitation  
Precipitation 0.00 in - - ()
Sea Level Pressure  
Sea Level Pressure 29.48 in    
Wind  
Wind Speed 7 mph (WNW)    
Max Wind Speed 17 mph    
Max Gust Speed 23 mph    
Visibility 5 miles    
Events Snow    
Averages and records for this station are not official NWS values.
T = Trace of Precipitation, MM = Missing Value Source: NWS Daily Summary

Daily Weather History Graph

Daily Weather History Graph

Search for Another Location

Airport:

Trip Planner

Search our weather history database for the weather conditions in past years. The results will help you decide how hot, cold, wet, or windy it might be!

Date:

Astronomy

Feb. 11, 2013 Rise Set
Actual Time 7:05 AM CST 5:17 PM CST
Civil Twilight 6:34 AM CST 5:48 PM CST
Nautical Twilight 5:59 AM CST 6:24 PM CST
Astronomical Twilight 5:24 AM CST 6:58 PM CST
Moon 7:21 AM CST (2/11) 7:24 PM CST (2/11)
Length of Visible Light 11h 14m
Length of Day
10h 12m
Waxing Crescent, 3% of the Moon is Illuminated
Feb 11
Waxing Crescent
Feb 17
First Quarter
Feb 25
Full
Mar 4
Last Quarter
Mar 11
New

Hourly Weather History & Observations

Time (CST) Temp. Windchill Dew Point Humidity Pressure Visibility Wind Dir Wind Speed Gust Speed Precip Events Conditions
12:15 AM 32.0 °F 27.5 °F 32.0 °F 100% 29.23 in 7.0 mi SE 4.6 mph - N/A Snow Light Snow
12:35 AM 32.0 °F 28.7 °F 32.0 °F 100% 29.23 in 10.0 mi ESE 3.5 mph - N/A Snow Light Snow
12:55 AM 32.0 °F - 32.0 °F 100% 29.22 in 10.0 mi Calm Calm - N/A Snow Light Snow
1:15 AM 32.0 °F 28.7 °F 32.0 °F 100% 29.22 in 5.0 mi SSE 3.5 mph - N/A Snow Light Snow
1:35 AM 32.0 °F 28.7 °F 32.0 °F 100% 29.22 in 1.0 mi SSE 3.5 mph - N/A Snow Light Snow
1:55 AM 32.0 °F 28.7 °F 32.0 °F 100% 29.22 in 2.0 mi SSE 3.5 mph - N/A Snow Light Snow
2:15 AM 32.0 °F - 32.0 °F 100% 29.21 in 3.0 mi Calm Calm - N/A Snow Light Snow
2:35 AM 32.0 °F - 32.0 °F 100% 29.21 in 2.5 mi Calm Calm - N/A Snow Light Snow
2:55 AM 32.0 °F - 32.0 °F 100% 29.21 in 4.0 mi Calm Calm - N/A Snow Light Snow
3:15 AM 32.0 °F 28.7 °F 32.0 °F 100% 29.20 in 3.0 mi SSW 3.5 mph - N/A Snow Light Snow
3:35 AM 32.0 °F 28.7 °F 32.0 °F 100% 29.20 in 1.8 mi SW 3.5 mph - N/A Snow Light Snow
3:55 AM 32.0 °F 27.5 °F 32.0 °F 100% 29.20 in 3.0 mi SW 4.6 mph - N/A Snow Light Snow
4:15 AM 32.0 °F 27.5 °F 32.0 °F 100% 29.20 in 2.0 mi SW 4.6 mph - N/A Snow Light Snow
4:35 AM 32.0 °F 28.7 °F 32.0 °F 100% 29.21 in 2.0 mi SW 3.5 mph - N/A Snow Light Snow
4:55 AM 32.0 °F 28.7 °F 32.0 °F 100% 29.21 in 4.0 mi SW 3.5 mph - N/A Snow Light Snow
5:15 AM 32.0 °F 27.5 °F 32.0 °F 100% 29.21 in 3.0 mi WSW 4.6 mph - N/A Snow Light Snow
5:35 AM 32.0 °F 27.5 °F 32.0 °F 100% 29.22 in 1.0 mi WSW 4.6 mph - N/A Snow Snow
5:55 AM 32.0 °F 27.5 °F 32.0 °F 100% 29.22 in 1.0 mi WSW 4.6 mph - N/A Snow Snow
6:15 AM 32.0 °F 25.6 °F 32.0 °F 100% 29.23 in 1.8 mi NW 6.9 mph - N/A Snow Light Snow
6:35 AM 32.0 °F 26.4 °F 32.0 °F 100% 29.24 in 3.0 mi NNW 5.8 mph - N/A Snow Light Snow
6:55 AM 32.0 °F 25.6 °F 32.0 °F 100% 29.25 in 2.0 mi NW 6.9 mph - N/A Snow Light Snow
7:15 AM 32.0 °F 26.4 °F 32.0 °F 100% 29.26 in 0.8 mi NW 5.8 mph - N/A Snow Light Snow
7:35 AM 32.0 °F 24.8 °F 32.0 °F 100% 29.28 in 0.8 mi WNW 8.1 mph - N/A Snow Light Snow
7:55 AM 32.0 °F 24.8 °F 32.0 °F 100% 29.29 in 0.8 mi WNW 8.1 mph - N/A Snow Light Snow
8:15 AM 32.0 °F 24.8 °F 32.0 °F 100% 29.30 in 0.8 mi WNW 8.1 mph - N/A Snow Snow
8:35 AM 32.0 °F 24.8 °F 32.0 °F 100% 29.31 in 1.0 mi NW 8.1 mph - N/A Snow Light Snow
8:55 AM 32.0 °F 23.6 °F 32.0 °F 100% 29.33 in 2.0 mi NW 10.4 mph - N/A Snow Light Snow
9:15 AM 32.0 °F 21.6 °F 30.2 °F 93% 29.36 in 1.2 mi NW 15.0 mph 23.0 mph N/A Snow Light Snow
9:35 AM 30.2 °F 20.8 °F 28.4 °F 93% 29.37 in 7.0 mi NW 11.5 mph - N/A Snow Light Snow
9:55 AM 30.2 °F 19.8 °F 28.4 °F 93% 29.39 in 7.0 mi NW 13.8 mph 21.9 mph N/A Snow Light Snow
10:15 AM 30.2 °F 19.3 °F 28.4 °F 93% 29.41 in 7.0 mi NW 15.0 mph 19.6 mph N/A   Overcast
10:35 AM 28.4 °F 17.5 °F 26.6 °F 93% 29.43 in 7.0 mi NW 13.8 mph 20.7 mph N/A   Overcast
10:55 AM 28.4 °F 17.0 °F 26.6 °F 93% 29.44 in 10.0 mi NNW 15.0 mph 19.6 mph N/A   Overcast
11:15 AM 28.4 °F 18.5 °F 26.6 °F 93% 29.45 in 10.0 mi NW 11.5 mph 18.4 mph N/A   Overcast
11:35 AM 28.4 °F 18.5 °F 23.0 °F 80% 29.46 in 10.0 mi NW 11.5 mph 16.1 mph N/A   Overcast
11:55 AM 28.4 °F 17.5 °F 23.0 °F 80% 29.47 in 10.0 mi NNW 13.8 mph 18.4 mph N/A   Overcast
12:15 PM 28.4 °F 19.1 °F 23.0 °F 80% 29.48 in 10.0 mi NW 10.4 mph - N/A   Overcast
12:35 PM 28.4 °F 19.1 °F 23.0 °F 80% 29.49 in 10.0 mi NW 10.4 mph 16.1 mph N/A   Overcast
12:55 PM 26.6 °F 16.2 °F 23.0 °F 86% 29.50 in 10.0 mi NW 11.5 mph 18.4 mph N/A   Overcast
1:15 PM 26.6 °F 17.5 °F 23.0 °F 86% 29.52 in 10.0 mi NW 9.2 mph 19.6 mph N/A   Overcast
1:35 PM 26.6 °F 13.8 °F 21.2 °F 80% 29.53 in 10.0 mi WNW 17.3 mph - N/A   Overcast
1:55 PM 26.6 °F 16.2 °F 21.2 °F 80% 29.54 in 7.0 mi NW 11.5 mph 16.1 mph N/A   Overcast
2:15 PM 26.6 °F 14.3 °F 21.2 °F 80% 29.56 in 7.0 mi NW 16.1 mph 21.9 mph N/A   Overcast
2:35 PM 24.8 °F 15.3 °F 21.2 °F 86% 29.57 in 10.0 mi WNW 9.2 mph 17.3 mph N/A   Overcast
2:55 PM 24.8 °F 14.0 °F 19.4 °F 80% 29.59 in 10.0 mi WNW 11.5 mph 16.1 mph N/A Snow Light Snow
3:15 PM 24.8 °F 15.3 °F 19.4 °F 80% 29.60 in 7.0 mi WNW 9.2 mph - N/A Snow Light Snow
3:35 PM 24.8 °F 13.4 °F 19.4 °F 80% 29.62 in 7.0 mi NW 12.7 mph 18.4 mph N/A Snow Light Snow
3:55 PM 23.0 °F 13.1 °F 19.4 °F 86% 29.62 in 2.0 mi WNW 9.2 mph 17.3 mph N/A Snow Light Snow
4:55 PM 23.0 °F 10.1 °F 19.4 °F 86% 29.66 in 5.0 mi WNW 15.0 mph - N/A Snow Light Snow
5:15 PM 23.0 °F 13.9 °F 17.6 °F 80% 29.67 in 2.5 mi NW 8.1 mph - N/A Snow Light Snow
5:35 PM 21.2 °F 11.7 °F 17.6 °F 86% 29.68 in 2.0 mi WNW 8.1 mph - N/A Snow Light Snow
5:55 PM 23.0 °F 13.1 °F 19.4 °F 86% 29.69 in 3.0 mi WNW 9.2 mph - N/A Snow Light Snow
6:15 PM 23.0 °F 12.4 °F 19.4 °F 86% 29.71 in 3.0 mi WNW 10.4 mph 16.1 mph N/A Snow Light Snow
6:35 PM 23.0 °F 10.6 °F 19.4 °F 86% 29.71 in 2.5 mi WNW 13.8 mph 20.7 mph N/A Snow Light Snow
6:55 PM 23.0 °F 13.9 °F 19.4 °F 86% 29.72 in 4.0 mi WNW 8.1 mph - N/A Snow Light Snow
7:15 PM 21.2 °F 9.5 °F 17.6 °F 86% 29.73 in 5.0 mi NW 11.5 mph 17.3 mph N/A Snow Light Snow
7:35 PM 21.2 °F 10.9 °F 17.6 °F 86% 29.75 in 4.0 mi WNW 9.2 mph - N/A Snow Light Snow
7:55 PM 21.2 °F 11.7 °F 17.6 °F 86% 29.75 in 2.5 mi WNW 8.1 mph - N/A Snow Light Snow
8:15 PM 21.2 °F 10.9 °F 17.6 °F 86% 29.76 in 4.0 mi WNW 9.2 mph - N/A Snow Light Snow
8:35 PM 21.2 °F 11.7 °F 17.6 °F 86% 29.77 in 2.5 mi WNW 8.1 mph - N/A Snow Light Snow
8:55 PM 21.2 °F 11.7 °F 17.6 °F 86% 29.78 in 2.5 mi WNW 8.1 mph - N/A Snow Light Snow
9:15 PM 21.2 °F 12.6 °F 17.6 °F 86% 29.78 in 2.0 mi West 6.9 mph - N/A Snow Light Snow
9:35 PM 21.2 °F 11.7 °F 17.6 °F 86% 29.79 in 3.0 mi WNW 8.1 mph - N/A Snow Light Snow
9:55 PM 21.2 °F 11.7 °F 17.6 °F 86% 29.80 in 3.0 mi WNW 8.1 mph - N/A Snow Light Snow
10:15 PM 21.2 °F 12.6 °F 17.6 °F 86% 29.81 in 5.0 mi West 6.9 mph - N/A Snow Light Snow
10:35 PM 19.4 °F 9.5 °F 17.6 °F 93% 29.81 in 5.0 mi West 8.1 mph - N/A Snow Light Snow
10:55 PM 19.4 °F 10.4 °F 17.6 °F 93% 29.82 in 5.0 mi West 6.9 mph - N/A Snow Light Snow
11:15 PM 19.4 °F 10.4 °F 17.6 °F 93% 29.82 in 4.0 mi West 6.9 mph - N/A Snow Light Snow
11:35 PM 19.4 °F 8.6 °F 17.6 °F 93% 29.83 in 4.0 mi WNW 9.2 mph - N/A Snow Light Snow
11:55 PM 19.4 °F 10.4 °F 15.8 °F 86% 29.83 in 5.0 mi West 6.9 mph - N/A Snow Light Snow